Tracking 29892 objects as of 21-Nov-2024
HD Live streaming from Space Station
objects crossing your sky now

METEOR 1-19

Track METEOR 1-19 now!
10-day predictions
METEOR 1-19 is classified as:


NORAD ID: 7490
Int'l Code: 1974-083A
Perigee: 843.6 km
Apogee: 886.5 km
Inclination: 81.2 °
Period: 102.1 minutes
Semi major axis: 7236 km
RCS: 4.6009 m2 (large)
Launch date: October 28, 1974
Source: Commonwealth of Independent States (former USSR) (CIS)
Launch site: PLESETSK MISSILE AND SPACE COMPLEX (PKMTR)
Your satellite tracking list
Your tracking list is empty




NASA's NSSDC Master Catalog

Two Line Element Set (TLE):
1 07490U 74083A   24325.89150397  .00000023  00000-0  62959-5 0  9991
2 07490  81.1876 339.8339 0029710 262.6558  97.1236 14.10426525574064
Source of the keplerian elements: AFSPC